Wind_Speed
6 5 5 4 4 4 4 4 4 3 4 4 3 3 2 2 1 1 1 1 1 1 1 0 0 0 1 1 2 3 3 3 3 4 4 5 6 6 7 7 8 7 8
5 5 5 4 3 3 2 3 3 2 2 2 1 1 1 1 1 1 1 1 0 1 1 2 2 2 3 2 3 3 4 5 5 6 6 6 7 7 8 8 9 9 9
5 4 4 3 2 2 1 2 2 2 1 1 0 0 1 1 2 2 3 2 2 3 3 2 3 4 4 4 4 4 5 6 6 7 7 7 8 8 9 9 10 10 11
6 4 4 3 2 1 1 1 1 1 1 2 2 2 2 2 2 3 3 4 3 4 3 4 3 4 5 5 6 5 6 6 7 7 7 8 9 9 10 10 11 11 12
6 5 4 3 3 1 1 1 0 1 2 2 2 3 3 3 4 4 4 4 4 4 4 5 5 5 6 7 7 7 7 7 7 8 8 8 9 10 11 11 12 12 13
5 4 3 3 3 2 1 0 1 1 2 2 2 3 4 4 4 5 5 6 6 5 6 6 6 6 6 7 8 8 8 8 8 9 9 10 10 11 11 12 13 13 14
4 3 3 2 2 2 1 1 1 2 2 3 3 4 5 5 5 5 6 6 7 7 7 7 7 7 7 8 8 9 9 9 10 10 10 11 11 12 13 13 14 14 14
4 3 2 2 2 2 1 1 2 3 3 3 4 5 5 6 6 7 7 8 8 9 9 9 8 9 9 9 10 10 10 10 11 11 11 11 12 13 14 14 14 15 16
5 4 3 2 2 2 3 3 4 4 4 4 5 5 6 6 7 8 8 9 9 10 10 9 9 10 11 11 11 11 11 11 12 12 12 12 13 13 14 15 15 16 17
5 4 4 3 3 3 4 4 4 5 6 6 6 6 6 7 7 8 9 10 10 10 10 10 10 10 11 11 12 12 12 12 13 13 13 14 14 15 16 16 17 17 18
5 5 4 4 4 4 5 6 6 6 7 7 6 6 7 7 8 8 9 10 10 11 11 11 11 12 12 13 13 13 13 13 14 14 15 15 16 17 17 18 19 19 20
7 6 5 5 5 6 6 6 6 7 8 7 7 7 8 8 9 10 11 11 11 11 11 11 12 12 12 12 13 13 14 14 14 15 16 16 17 18 18 18 19 20 21
7 6 6 6 6 6 6 7 7 8 8 8 8 8 9 10 10 11 12 12 12 12 12 12 13 13 13 14 14 14 15 15 15 16 16 17 18 18 19 20 20 21 22
7 6 6 6 6 6 7 7 8 8 9 9 9 10 11 11 11 12 13 13 13 13 13 13 13 14 14 14 14 16 16 16 17 17 18 19 20 21 22 22 22 23 23
8 7 7 7 7 8 8 9 9 9 10 10 10 11 12 11 12 12 13 13 13 13 14 14 14 15 15 15 16 17 17 18 19 19 20 21 22 22 23 24 25 25 25
10 9 8 9 9 9 9 10 10 10 10 10 10 10 11 11 12 12 13 14 14 15 15 15 16 17 17 17 18 18 19 19 20 20 21 22 22 23 24 25 26 27 27
10 10 9 9 9 9 9 10 11 11 10 10 10 11 12 12 13 13 14 14 15 15 15 16 17 17 18 18 19 19 19 20 21 21 22 23 23 24 25 26 27 27 28
11 11 10 10 10 10 11 11 11 11 12 12 12 12 13 13 14 14 15 15 15 15 16 16 18 19 19 19 20 20 21 21 23 24 24 25 26 27 27 27 27 29 30
11 11 11 12 12 12 12 12 12 12 13 13 14 14 14 14 15 15 16 16 17 17 18 18 19 19 20 21 22 22 23 24 24 25 26 27 27 28 28 29 30 30 31
12 13 13 13 13 13 13 14 13 13 13 13 13 14 15 15 16 16 16 17 18 18 18 19 20 20 21 22 23 24 25 25 26 27 27 27 27 28 29 30 31 31 32
14 14 14 15 15 14 14 14 14 13 14 14 14 15 15 16 16 17 17 18 19 20 21 21 22 23 23 24 24 25 26 26 27 28 28 28 29 29 30 31 31 32 33
15 15 15 15 15 15 15 15 14 14 15 15 16 16 16 16 17 17 18 19 20 21 22 22 23 23 24 25 26 27 27 28 28 28 29 30 31 31 32 32 33 33 34
16 16 16 16 16 16 16 15 15 16 16 16 16 16 16 17 17 18 19 20 21 21 22 23 24 24 25 26 27 28 29 30 30 30 30 31 31 32 33 33 34 34 35
17 17 17 17 17 17 17 16 16 16 16 17 17 17 18 18 18 19 20 21 21 22 23 24 25 26 27 28 28 29 29 30 31 31 32 32 32 33 34 35 35 36 36
17 17 17 18 18 18 17 18 18 18 18 18 18 18 19 19 20 20 21 22 22 23 23 25 25 26 27 28 28 29 30 31 31 32 32 33 33 33 34 35 35 36 36
18 17 18 19 19 19 19 18 19 19 20 19 19 20 20 21 21 22 22 23 23 24 25 26 26 27 28 29 29 29 30 31 31 32 32 33 33 34 34 35 35 36 37
Wind_Direction
94 106 114 113 121 121 126 123 117 120 108 108 109 102 103 123 140 111 98 34 45 35 5 335 216 207 205 221 242 255 249 247 238 239 237 240 241 247 247 246 246 249 251
79 91 93 95 125 128 136 142 137 123 128 115 108 111 124 164 188 203 239 255 308 310 289 267 258 261 245 241 257 269 260 254 257 255 253 256 253 252 254 256 254 253 253
68 74 83 96 110 109 112 164 155 147 184 225 248 267 234 250 264 259 252 259 257 271 271 266 261 262 261 257 269 272 264 262 263 263 262 260 258 257 257 259 259 258 258
61 72 75 72 81 83 104 124 170 196 238 258 269 265 266 275 290 281 276 268 268 269 270 278 276 277 268 262 265 272 263 266 267 265 265 261 259 260 260 262 263 261 262
49 47 55 54 50 59 111 124 206 233 265 263 254 257 272 273 280 282 279 273 278 277 277 282 280 281 274 267 271 271 271 268 272 267 267 265 262 262 262 263 263 264 264
38 39 40 42 36 18 5 7 240 238 253 269 265 259 269 272 273 280 277 276 276 277 278 279 281 281 282 273 274 274 273 271 271 269 266 264 264 264 265 268 267 267 267
34 23 13 356 360 2 344 272 248 266 268 267 277 279 274 272 272 277 277 281 281 279 275 275 274 275 277 274 274 274 274 272 271 270 266 266 266 267 269 272 271 271 271
26 10 349 339 332 334 325 304 297 293 294 288 280 278 274 272 272 280 279 278 281 283 277 271 272 273 272 272 275 277 276 275 271 268 267 267 268 270 271 273 273 275 274
10 9 353 336 333 327 325 316 307 307 301 288 283 280 278 273 269 275 278 280 280 283 278 277 278 277 275 273 279 280 282 276 270 268 266 270 271 272 273 274 273 272 271
3 356 350 346 326 307 311 310 308 307 300 292 288 281 282 279 275 276 276 282 283 286 285 284 283 284 279 282 283 283 281 275 271 270 271 272 272 275 276 276 275 273 271
349 345 336 334 324 315 313 307 306 305 301 296 291 284 283 282 280 279 279 285 288 290 292 290 288 287 282 283 281 278 277 276 274 273 273 274 276 276 276 277 276 275 273
343 338 332 328 320 315 312 310 306 301 301 296 287 283 282 284 284 281 283 284 284 287 289 289 287 286 286 284 282 279 278 277 277 276 275 276 276 276 276 277 277 277 277
338 332 330 328 323 320 316 309 305 299 301 295 287 285 285 285 286 286 286 285 285 285 285 287 288 287 284 282 281 279 279 278 280 279 278 279 279 277 277 279 279 278 278
339 328 325 321 318 316 314 311 306 302 301 298 291 287 285 285 288 289 287 286 286 287 287 288 288 287 287 286 284 283 282 280 279 278 278 279 278 277 276 278 278 277 277
338 328 324 321 317 316 313 310 309 303 302 301 295 289 286 284 287 289 289 287 286 288 288 289 289 288 285 284 284 283 284 282 280 278 278 279 280 279 278 277 277 277 277
333 331 327 323 319 316 314 312 312 313 305 301 295 290 290 287 288 290 291 285 282 283 286 288 289 287 283 284 285 285 285 283 281 281 279 280 281 280 279 278 278 279 278
336 332 328 324 316 313 318 320 318 316 311 307 301 295 291 290 291 292 293 291 287 285 284 286 286 286 285 287 287 286 286 285 284 283 283 282 282 282 281 280 280 279 278
332 332 329 326 324 315 314 317 316 314 310 309 304 299 295 292 292 294 295 297 293 291 288 289 288 287 289 290 291 291 291 292 290 288 286 284 283 282 282 281 280 279 278
326 325 326 326 325 320 314 312 309 306 304 305 304 302 300 298 297 297 297 296 294 293 290 292 290 289 292 294 293 293 292 292 290 289 288 287 285 284 283 282 281 281 279
325 325 324 323 322 318 316 313 311 308 306 306 306 306 305 304 300 300 299 298 299 296 294 295 293 294 295 294 293 291 292 292 291 291 291 290 289 287 284 283 282 282 282
324 323 322 322 319 316 316 315 314 311 310 309 310 309 308 305 301 299 298 299 300 300 300 300 298 297 297 296 295 293 292 292 292 292 292 291 290 289 288 287 286 285 284
319 321 321 321 320 316 315 315 314 312 307 306 307 306 306 306 305 301 300 299 300 300 300 300 300 300 299 298 296 295 294 295 295 294 293 292 291 291 291 289 288 287 287
317 318 318 318 316 316 314 312 309 309 309 308 307 305 304 306 305 304 301 299 300 300 301 302 301 301 300 300 298 297 297 297 297 296 295 295 293 291 290 291 290 290 289
313 314 315 314 314 314 314 313 312 310 309 308 307 306 304 305 307 306 305 304 303 303 302 302 301 301 301 301 300 300 300 299 298 298 297 297 295 293 292 292 291 290 290
312 312 314 314 313 313 312 311 311 311 310 309 307 304 305 305 306 305 305 305 305 304 304 304 302 302 302 302 302 302 301 301 300 300 299 299 298 297 295 294 293 292 291
312 311 314 313 313 312 312 311 310 309 309 308 307 306 306 306 306 305 305 306 306 307 307 306 304 304 304 304 304 304 304 304 303 302 301 301 300 299 298 297 295 294 293
Height
5898 5899 5899 5899 5898 5898 5899 5899 5899 5899 5899 5899 5899 5898 5898 5898 5898 5897 5897 5896 5896 5896 5895 5895 5894 5894 5893 5893 5893 5893 5893 5893 5893 5892 5892 5892 5892 5892 5892 5893 5893 5893 5893
5900 5899 5899 5899 5898 5899 5899 5899 5899 5899 5899 5899 5899 5899 5899 5898 5898 5897 5897 5896 5896 5896 5895 5895 5894 5894 5893 5893 5892 5892 5892 5892 5891 5891 5891 5891 5891 5891 5891 5891 5891 5891 5891
5901 5900 5900 5900 5900 5900 5900 5900 5900 5900 5900 5899 5899 5899 5898 5898 5897 5897 5896 5896 5896 5896 5895 5894 5894 5893 5893 5892 5892 5892 5891 5891 5890 5890 5890 5890 5890 5890 5890 5890 5890 5889 5889
5901 5901 5900 5900 5900 5900 5900 5900 5899 5899 5899 5899 5899 5898 5898 5897 5897 5896 5896 5895 5895 5894 5894 5893 5893 5892 5892 5891 5891 5890 5890 5889 5889 5889 5888 5888 5888 5888 5888 5887 5887 5887 5887
5902 5901 5901 5901 5900 5900 5900 5899 5899 5899 5898 5898 5898 5897 5897 5897 5896 5896 5895 5895 5894 5893 5893 5892 5892 5891 5890 5890 5890 5889 5888 5887 5887 5886 5886 5886 5886 5885 5885 5885 5885 5885 5884
5903 5902 5901 5901 5901 5900 5900 5899 5899 5898 5898 5898 5897 5897 5896 5896 5895 5895 5894 5893 5893 5892 5891 5891 5890 5890 5889 5888 5888 5887 5886 5886 5885 5884 5884 5883 5883 5883 5883 5882 5882 5882 5881
5903 5902 5901 5901 5900 5900 5899 5899 5898 5898 5897 5897 5896 5896 5895 5895 5894 5894 5893 5892 5892 5891 5890 5889 5888 5888 5887 5886 5886 5885 5884 5884 5883 5882 5881 5881 5881 5880 5880 5879 5879 5879 5878
5903 5902 5901 5900 5899 5899 5899 5898 5898 5897 5896 5896 5895 5895 5894 5894 5893 5892 5891 5891 5890 5889 5888 5887 5886 5886 5885 5884 5884 5883 5882 5881 5880 5879 5879 5878 5878 5877 5877 5876 5876 5875 5875
5902 5901 5900 5900 5899 5899 5898 5897 5897 5896 5895 5895 5894 5893 5893 5892 5892 5891 5890 5889 5888 5888 5886 5885 5884 5883 5882 5881 5881 5880 5879 5878 5877 5876 5875 5875 5874 5874 5873 5873 5872 5871 5871
5902 5901 5900 5899 5899 5898 5897 5896 5895 5895 5894 5893 5893 5892 5891 5890 5890 5889 5889 5887 5886 5885 5884 5883 5882 5880 5879 5878 5877 5877 5876 5875 5874 5873 5873 5872 5871 5870 5869 5869 5868 5867 5866
5901 5900 5898 5898 5898 5897 5896 5895 5894 5893 5892 5891 5891 5890 5889 5889 5888 5887 5886 5886 5884 5883 5882 5880 5879 5878 5877 5876 5874 5873 5872 5871 5870 5870 5869 5868 5867 5867 5865 5865 5864 5863 5862
5900 5899 5897 5897 5896 5895 5894 5893 5892 5891 5890 5889 5888 5888 5887 5886 5885 5885 5884 5883 5882 5881 5879 5878 5876 5875 5874 5872 5870 5870 5868 5868 5867 5866 5865 5864 5863 5862 5861 5860 5859 5858 5856
5899 5898 5896 5895 5894 5893 5892 5891 5890 5889 5888 5887 5886 5885 5885 5884 5883 5882 5881 5880 5879 5877 5876 5875 5873 5872 5870 5869 5867 5866 5865 5864 5863 5862 5861 5860 5858 5857 5856 5855 5854 5852 5851
5898 5896 5895 5894 5892 5891 5890 5889 5888 5886 5885 5884 5883 5883 5882 5881 5880 5879 5878 5876 5875 5874 5872 5871 5870 5868 5866 5865 5863 5862 5861 5859 5858 5857 5856 5855 5854 5852 5851 5850 5848 5847 5845
5897 5895 5893 5892 5891 5890 5888 5887 5885 5884 5883 5881 5880 5879 5878 5877 5876 5875 5874 5873 5872 5870 5869 5867 5865 5864 5862 5860 5859 5858 5856 5855 5853 5852 5851 5849 5848 5846 5845 5843 5842 5840 5839
5895 5893 5892 5890 5889 5888 5886 5885 5883 5881 5880 5879 5877 5876 5875 5874 5873 5871 5870 5868 5867 5866 5864 5863 5861 5859 5857 5855 5854 5853 5851 5850 5848 5846 5845 5843 5841 5839 5837 5836 5835 5833 5832
5894 5892 5890 5889 5887 5885 5884 5882 5881 5879 5878 5876 5874 5873 5872 5871 5869 5868 5866 5864 5863 5862 5860 5859 5857 5855 5852 5851 5849 5848 5846 5844 5842 5840 5838 5837 5834 5832 5830 5829 5827 5825 5824
5892 5891 5889 5887 5885 5883 5881 5880 5878 5877 5875 5873 5871 5870 5868 5867 5866 5864 5862 5860 5858 5857 5855 5854 5852 5850 5848 5846 5844 5842 5840 5838 5836 5834 5832 5830 5828 5825 5823 5821 5819 5817 5815
5890 5889 5887 5885 5883 5881 5879 5877 5875 5873 5872 5870 5868 5866 5865 5863 5862 5860 5858 5856 5854 5852 5850 5849 5847 5845 5843 5841 5839 5837 5834 5832 5830 5827 5825 5822 5820 5817 5815 5813 5811 5809 5806
5888 5887 5884 5882 5880 5878 5876 5874 5872 5870 5868 5866 5864 5863 5861 5859 5857 5855 5854 5852 5850 5848 5846 5844 5842 5840 5837 5835 5833 5830 5828 5825 5822 5820 5817 5814 5812 5809 5807 5804 5802 5800 5797
5886 5884 5882 5880 5878 5876 5874 5871 5869 5867 5865 5863 5862 5859 5857 5855 5853 5851 5849 5847 5845 5843 5841 5838 5836 5834 5831 5828 5826 5823 5820 5818 5815 5812 5809 5806 5803 5800 5797 5795 5792 5790 5787
5884 5882 5879 5877 5875 5873 5871 5868 5866 5864 5862 5860 5858 5856 5854 5852 5849 5847 5844 5842 5840 5838 5835 5833 5830 5827 5824 5822 5819 5816 5813 5810 5807 5804 5801 5797 5794 5791 5788 5785 5782 5779 5776
5881 5879 5876 5874 5872 5870 5868 5865 5863 5861 5858 5856 5854 5852 5850 5847 5845 5842 5840 5837 5835 5832 5830 5827 5824 5821 5818 5815 5812 5809 5805 5802 5799 5795 5792 5789 5785 5781 5778 5775 5772 5769 5766
5878 5875 5873 5871 5869 5866 5864 5862 5860 5857 5855 5852 5850 5848 5845 5843 5840 5837 5835 5832 5829 5827 5824 5821 5818 5815 5812 5808 5805 5801 5797 5794 5790 5786 5783 5779 5775 5772 5768 5765 5761 5758 5755
5874 5872 5869 5867 5865 5862 5860 5858 5855 5853 5850 5848 5845 5843 5840 5838 5835 5833 5830 5827 5824 5821 5817 5814 5811 5807 5804 5800 5797 5793 5789 5785 5781 5777 5773 5770 5766 5762 5759 5755 5751 5747 5744
5870 5868 5866 5863 5861 5858 5855 5853 5851 5848 5846 5843 5841 5838 5835 5833 5830 5827 5824 5821 5818 5814 5811 5807 5804 5800 5797 5793 5789 5785 5781 5777 5773 5769 5765 5761 5757 5752 5749 5745 5741 5737 5733